Time,TemperatureF,DewpointF,PressureIn,WindDirection,WindDirectionDegrees,WindSpeedMPH,WindSpeedGustMPH,Humidity,HourlyPrecipIn,Conditions,Clouds,dailyrainin,SolarRadiationWatts/m^2,SoftwareType,DateUTC
2013-02-24 00:01:00,37.5,35.7,30.31,South,176,0.0,4.0,93,0.00,,---,0.00,0.00,VWS V14.01,2013-02-24 08:01:00,
2013-02-24 00:06:00,37.4,35.6,30.31,SSE,155,0.0,2.0,93,0.00,,---,0.00,0.00,VWS V14.01,2013-02-24 08:06:00,
2013-02-24 00:11:00,37.4,35.6,30.31,East,98,0.0,2.0,93,0.00,,---,0.00,0.00,VWS V14.01,2013-02-24 08:11:00,
2013-02-24 00:16:00,37.4,35.6,30.31,East,99,0.0,2.0,93,0.00,,---,0.00,0.00,VWS V14.01,2013-02-24 08:16:00,
2013-02-24 00:21:00,37.3,35.5,30.31,East,99,0.0,1.0,93,0.00,,---,0.00,0.00,VWS V14.01,2013-02-24 08:21:00,
2013-02-24 00:26:00,37.3,35.5,30.31,East,99,0.0,1.0,93,0.00,,---,0.00,0.00,VWS V14.01,2013-02-24 08:26:00,
2013-02-24 00:31:00,37.3,35.5,30.31,East,99,0.0,0.0,93,0.00,,---,0.00,0.00,VWS V14.01,2013-02-24 08:31:00,
2013-02-24 00:36:00,37.2,35.4,30.31,East,99,0.0,2.0,93,0.00,,---,0.00,0.00,VWS V14.01,2013-02-24 08:36:00,
2013-02-24 00:41:00,37.3,35.2,30.31,West,267,1.0,4.0,92,0.00,,---,0.00,0.00,VWS V14.01,2013-02-24 08:41:00,
2013-02-24 00:46:00,37.3,35.2,30.32,West,269,0.0,4.0,92,0.00,,---,0.00,0.00,VWS V14.01,2013-02-24 08:46:00,
2013-02-24 00:51:00,37.4,35.3,30.32,SSE,167,2.0,2.0,92,0.00,,---,0.00,0.00,VWS V14.01,2013-02-24 08:51:00,
2013-02-24 00:56:00,37.5,35.4,30.31,WSW,245,0.0,4.0,92,0.00,,---,0.00,0.00,VWS V14.01,2013-02-24 08:56:00,
2013-02-24 01:01:00,37.5,35.4,30.31,South,188,0.0,4.0,92,0.00,,---,0.00,0.00,VWS V14.01,2013-02-24 09:01:00,
2013-02-24 01:06:00,37.5,35.4,30.31,SSW,198,0.0,3.0,92,0.00,,---,0.00,0.00,VWS V14.01,2013-02-24 09:06:00,
2013-02-24 01:11:00,37.5,35.4,30.31,SW,230,0.0,3.0,92,0.00,,---,0.00,0.00,VWS V14.01,2013-02-24 09:11:00,
2013-02-24 01:16:00,37.5,35.4,30.31,NNE,13,0.0,2.0,92,0.00,,---,0.00,0.00,VWS V14.01,2013-02-24 09:16:00,
2013-02-24 01:21:00,37.5,35.4,30.30,East,101,0.0,2.0,92,0.00,,---,0.00,0.00,VWS V14.01,2013-02-24 09:21:00,
2013-02-24 01:26:00,37.5,35.4,30.31,ESE,123,0.0,5.0,92,0.00,,---,0.00,0.00,VWS V14.01,2013-02-24 09:26:00,
2013-02-24 01:31:00,37.6,35.5,30.31,ESE,123,0.0,5.0,92,0.00,,---,0.00,0.00,VWS V14.01,2013-02-24 09:31:00,
2013-02-24 01:36:00,37.6,35.5,30.31,South,186,1.0,3.0,92,0.00,,---,0.00,0.00,VWS V14.01,2013-02-24 09:36:00,
2013-02-24 01:41:00,37.7,35.6,30.31,ESE,112,0.0,3.0,92,0.00,,---,0.00,0.00,VWS V14.01,2013-02-24 09:41:00,
2013-02-24 01:46:00,37.6,35.5,30.31,SW,232,0.0,2.0,92,0.00,,---,0.00,0.00,VWS V14.01,2013-02-24 09:46:00,
2013-02-24 01:51:00,37.7,35.6,30.31,SE,134,0.0,2.0,92,0.00,,---,0.00,0.00,VWS V14.01,2013-02-24 09:51:00,
2013-02-24 01:56:00,37.7,35.6,30.31,WNW,292,0.0,3.0,92,0.00,,---,0.00,0.00,VWS V14.01,2013-02-24 09:56:00,
2013-02-24 02:01:00,37.7,35.3,30.31,East,87,0.0,3.0,91,0.00,,---,0.00,0.00,VWS V14.01,2013-02-24 10:01:00,
2013-02-24 02:06:00,37.8,35.4,30.31,SSW,213,2.0,4.0,91,0.00,,---,0.00,0.00,VWS V14.01,2013-02-24 10:06:00,
2013-02-24 02:11:00,37.8,35.4,30.31,South,174,1.0,4.0,91,0.00,,---,0.00,0.00,VWS V14.01,2013-02-24 10:11:00,
2013-02-24 02:16:00,37.8,35.4,30.31,West,261,2.0,5.0,91,0.00,,---,0.00,0.00,VWS V14.01,2013-02-24 10:16:00,
2013-02-24 02:21:00,37.8,35.4,30.31,South,181,0.0,3.0,91,0.00,,---,0.00,0.00,VWS V14.01,2013-02-24 10:21:00,
2013-02-24 02:27:00,37.7,35.3,30.31,ENE,66,0.0,5.0,91,0.00,,---,0.00,0.00,VWS V14.01,2013-02-24 10:27:00,
2013-02-24 02:32:00,37.7,35.3,30.31,SSE,150,0.0,5.0,91,0.00,,---,0.00,0.00,VWS V14.01,2013-02-24 10:32:00,
2013-02-24 02:37:00,37.7,35.6,30.31,ENE,74,0.0,2.0,92,0.00,,---,0.00,0.00,VWS V14.01,2013-02-24 10:37:00,
2013-02-24 02:42:00,37.7,35.6,30.31,SSE,152,0.0,2.0,92,0.00,,---,0.00,0.00,VWS V14.01,2013-02-24 10:42:00,
2013-02-24 02:47:00,37.7,35.3,30.31,ESE,123,0.0,3.0,91,0.00,,---,0.00,0.00,VWS V14.01,2013-02-24 10:47:00,
2013-02-24 02:52:00,37.7,35.6,30.31,SSE,153,0.0,2.0,92,0.00,,---,0.00,0.00,VWS V14.01,2013-02-24 10:52:00,
2013-02-24 02:57:00,37.7,35.3,30.31,WSW,242,0.0,3.0,91,0.00,,---,0.00,0.00,VWS V14.01,2013-02-24 10:57:00,
2013-02-24 03:02:00,37.8,35.4,30.31,SE,142,2.0,5.0,91,0.00,,---,0.00,0.00,VWS V14.01,2013-02-24 11:02:00,
2013-02-24 03:07:00,37.8,35.4,30.31,West,277,2.0,5.0,91,0.00,,---,0.00,0.00,VWS V14.01,2013-02-24 11:07:00,
2013-02-24 03:12:00,37.9,35.5,30.31,WSW,257,2.0,5.0,91,0.00,,---,0.00,0.00,VWS V14.01,2013-02-24 11:12:00,
2013-02-24 03:17:00,37.9,35.5,30.31,ESE,122,2.0,5.0,91,0.00,,---,0.00,0.00,VWS V14.01,2013-02-24 11:17:00,
2013-02-24 03:22:00,37.9,35.5,30.31,WSW,251,0.0,4.0,91,0.00,,---,0.00,0.00,VWS V14.01,2013-02-24 11:22:00,
2013-02-24 03:27:00,37.9,35.5,30.31,South,174,0.0,4.0,91,0.00,,---,0.00,0.00,VWS V14.01,2013-02-24 11:27:00,
2013-02-24 03:32:00,37.9,35.5,30.31,South,187,0.0,3.0,91,0.00,,---,0.00,0.00,VWS V14.01,2013-02-24 11:32:00,
2013-02-24 03:37:00,37.8,35.7,30.31,West,281,2.0,2.0,92,0.00,,---,0.00,0.00,VWS V14.01,2013-02-24 11:37:00,
2013-02-24 03:42:00,37.8,35.7,30.31,West,281,0.0,2.0,92,0.00,,---,0.00,0.00,VWS V14.01,2013-02-24 11:42:00,
2013-02-24 03:47:00,37.8,35.4,30.31,SSE,161,0.0,5.0,91,0.00,,---,0.00,0.00,VWS V14.01,2013-02-24 11:47:00,
2013-02-24 03:52:00,37.8,35.4,30.31,South,182,0.0,2.0,91,0.00,,---,0.00,0.00,VWS V14.01,2013-02-24 11:52:00,
2013-02-24 03:57:00,37.8,35.4,30.31,SSE,159,0.0,4.0,91,0.00,,---,0.00,0.00,VWS V14.01,2013-02-24 11:57:00,
2013-02-24 04:02:00,37.8,35.4,30.31,South,173,1.0,4.0,91,0.00,,---,0.00,0.00,VWS V14.01,2013-02-24 12:02:00,
2013-02-24 04:07:00,37.9,35.5,30.31,WSW,256,0.0,6.0,91,0.00,,---,0.00,0.00,VWS V14.01,2013-02-24 12:07:00,
2013-02-24 04:12:00,37.9,35.2,30.31,ESE,116,2.0,6.0,90,0.00,,---,0.00,0.00,VWS V14.01,2013-02-24 12:12:00,
2013-02-24 04:17:00,38.0,35.6,30.31,SSW,192,1.0,4.0,91,0.00,,---,0.00,0.00,VWS V14.01,2013-02-24 12:17:00,
2013-02-24 04:22:00,38.0,35.6,30.31,East,86,0.0,2.0,91,0.00,,---,0.00,0.00,VWS V14.01,2013-02-24 12:22:00,
2013-02-24 04:27:00,37.9,35.5,30.31,SSW,197,0.0,2.0,91,0.00,,---,0.00,0.00,VWS V14.01,2013-02-24 12:27:00,
2013-02-24 04:32:00,37.9,35.5,30.30,ENE,57,0.0,5.0,91,0.00,,---,0.00,0.00,VWS V14.01,2013-02-24 12:32:00,
2013-02-24 04:37:00,37.8,35.4,30.30,East,101,0.0,2.0,91,0.00,,---,0.00,0.00,VWS V14.01,2013-02-24 12:37:00,
2013-02-24 04:42:00,37.8,35.4,30.30,WSW,258,0.0,2.0,91,0.00,,---,0.00,0.00,VWS V14.01,2013-02-24 12:42:00,
2013-02-24 04:47:00,37.7,35.6,30.30,WSW,250,0.0,2.0,92,0.00,,---,0.00,0.00,VWS V14.01,2013-02-24 12:47:00,
2013-02-24 04:52:00,37.7,35.3,30.30,WSW,253,0.0,2.0,91,0.00,,---,0.00,0.00,VWS V14.01,2013-02-24 12:52:00,
2013-02-24 04:57:00,37.7,35.6,30.30,SSW,204,3.0,4.0,92,0.00,,---,0.00,0.00,VWS V14.01,2013-02-24 12:57:00,
2013-02-24 05:02:00,37.7,35.6,30.30,SSE,159,0.0,4.0,92,0.00,,---,0.00,0.00,VWS V14.01,2013-02-24 13:02:00,
2013-02-24 05:07:00,37.6,35.5,30.30,SSE,159,0.0,1.0,92,0.00,,---,0.00,0.00,VWS V14.01,2013-02-24 13:07:00,
2013-02-24 05:12:00,37.6,35.5,30.30,SSE,159,0.0,1.0,92,0.00,,---,0.00,0.00,VWS V14.01,2013-02-24 13:12:00,
2013-02-24 05:17:00,37.5,35.4,30.30,East,85,0.0,3.0,92,0.00,,---,0.00,0.00,VWS V14.01,2013-02-24 13:17:00,
2013-02-24 05:22:00,37.5,35.4,30.29,NE,54,1.0,3.0,92,0.00,,---,0.00,0.00,VWS V14.01,2013-02-24 13:22:00,
2013-02-24 05:27:00,37.5,35.4,30.29,ENE,59,0.0,3.0,92,0.00,,---,0.00,0.00,VWS V14.01,2013-02-24 13:27:00,
2013-02-24 05:32:00,37.5,35.4,30.29,SE,127,1.0,4.0,92,0.00,,---,0.00,0.00,VWS V14.01,2013-02-24 13:32:00,
2013-02-24 05:37:00,37.5,35.1,30.29,East,92,0.0,4.0,91,0.00,,---,0.00,0.00,VWS V14.01,2013-02-24 13:37:00,
2013-02-24 05:42:00,37.6,35.2,30.29,East,98,0.0,4.0,91,0.00,,---,0.00,0.00,VWS V14.01,2013-02-24 13:42:00,
2013-02-24 05:47:00,37.7,35.3,30.29,WNW,296,0.0,4.0,91,0.00,,---,0.00,0.00,VWS V14.01,2013-02-24 13:47:00,
2013-02-24 05:52:00,37.8,35.1,30.29,East,94,0.0,5.0,90,0.00,,---,0.00,0.00,VWS V14.01,2013-02-24 13:52:00,
2013-02-24 05:57:00,37.9,35.0,30.29,SE,131,0.0,6.0,89,0.00,,---,0.00,0.00,VWS V14.01,2013-02-24 13:57:00,
2013-02-24 06:02:00,38.0,35.3,30.29,NE,54,0.0,1.0,90,0.00,,---,0.00,0.00,VWS V14.01,2013-02-24 14:02:00,
2013-02-24 06:07:00,38.0,35.3,30.29,NNE,31,0.0,2.0,90,0.00,,---,0.00,0.00,VWS V14.01,2013-02-24 14:07:00,
2013-02-24 06:12:00,38.0,35.3,30.28,South,173,1.0,4.0,90,0.00,,---,0.00,0.00,VWS V14.01,2013-02-24 14:12:00,
2013-02-24 06:17:00,38.0,35.3,30.28,SSE,150,1.0,4.0,90,0.00,,---,0.00,0.00,VWS V14.01,2013-02-24 14:17:00,
2013-02-24 06:22:00,38.0,35.0,30.28,SW,217,0.0,4.0,89,0.00,,---,0.00,0.00,VWS V14.01,2013-02-24 14:22:00,
2013-02-24 06:27:00,38.0,35.3,30.28,SSE,151,0.0,2.0,90,0.00,,---,0.00,0.00,VWS V14.01,2013-02-24 14:27:00,
2013-02-24 06:32:00,38.0,35.0,30.28,ESE,105,1.0,7.0,89,0.00,,---,0.00,0.00,VWS V14.01,2013-02-24 14:32:00,
2013-02-24 06:37:00,38.1,34.9,30.28,ESE,116,0.0,7.0,88,0.00,,---,0.00,0.00,VWS V14.01,2013-02-24 14:37:00,
2013-02-24 06:42:00,38.2,35.0,30.28,SSW,208,0.0,3.0,88,0.00,,---,0.00,0.00,VWS V14.01,2013-02-24 14:42:00,
2013-02-24 06:47:00,38.2,35.0,30.28,East,84,0.0,5.0,88,0.00,,---,0.00,0.00,VWS V14.01,2013-02-24 14:47:00,
2013-02-24 06:52:00,38.3,34.8,30.28,ENE,61,0.0,7.0,87,0.00,,---,0.00,0.00,VWS V14.01,2013-02-24 14:52:00,
2013-02-24 06:57:00,38.4,34.9,30.28,SE,134,2.0,5.0,87,0.00,,---,0.00,0.00,VWS V14.01,2013-02-24 14:57:00,
2013-02-24 07:02:00,38.4,34.9,30.27,WSW,251,5.0,5.0,87,0.00,,---,0.00,0.00,VWS V14.01,2013-02-24 15:02:00,
2013-02-24 07:07:00,38.5,35.3,30.27,SSE,157,0.0,6.0,88,0.00,,---,0.00,0.00,VWS V14.01,2013-02-24 15:07:00,
2013-02-24 07:12:00,38.5,35.0,30.27,WSW,250,0.0,5.0,87,0.00,,---,0.00,0.00,VWS V14.01,2013-02-24 15:12:00,
2013-02-24 07:17:00,38.5,35.0,30.28,SE,127,1.0,5.0,87,0.00,,---,0.00,0.00,VWS V14.01,2013-02-24 15:17:00,
2013-02-24 07:22:00,38.6,35.1,30.28,SE,129,0.0,6.0,87,0.00,,---,0.00,5.00,VWS V14.01,2013-02-24 15:22:00,
2013-02-24 07:27:00,38.6,35.1,30.28,SSE,167,1.0,4.0,87,0.00,,---,0.00,5.00,VWS V14.01,2013-02-24 15:27:00,
2013-02-24 07:32:00,38.6,35.4,30.28,WSW,250,0.0,4.0,88,0.00,,---,0.00,7.00,VWS V14.01,2013-02-24 15:32:00,
2013-02-24 07:37:00,38.5,35.3,30.28,SSW,196,0.0,5.0,88,0.00,,---,0.00,9.00,VWS V14.01,2013-02-24 15:37:00,
2013-02-24 07:42:00,38.5,35.3,30.28,SSW,199,1.0,5.0,88,0.00,,---,0.00,11.00,VWS V14.01,2013-02-24 15:42:00,
2013-02-24 07:47:00,38.4,35.5,30.28,East,93,1.0,2.0,89,0.00,,---,0.00,9.00,VWS V14.01,2013-02-24 15:47:00,
2013-02-24 07:53:00,38.4,35.5,30.28,SE,143,1.0,3.0,89,0.00,,---,0.00,11.00,VWS V14.01,2013-02-24 15:53:00,
2013-02-24 07:58:00,38.4,35.5,30.28,ENE,74,0.0,4.0,89,0.00,,---,0.00,9.00,VWS V14.01,2013-02-24 15:58:00,
2013-02-24 08:03:00,38.3,35.3,30.28,SSW,213,1.0,5.0,89,0.00,,---,0.00,12.00,VWS V14.01,2013-02-24 16:03:00,
2013-02-24 08:08:00,38.3,35.3,30.28,ESE,116,0.0,5.0,89,0.00,,---,0.00,14.00,VWS V14.01,2013-02-24 16:08:00,
2013-02-24 08:13:00,38.3,35.3,30.28,SE,126,4.0,4.0,89,0.00,,---,0.00,21.00,VWS V14.01,2013-02-24 16:13:00,
2013-02-24 08:18:00,38.4,35.5,30.28,East,82,0.0,4.0,89,0.00,,---,0.00,21.00,VWS V14.01,2013-02-24 16:18:00,
2013-02-24 08:23:00,38.4,35.5,30.28,NNE,33,2.0,5.0,89,0.00,,---,0.00,25.00,VWS V14.01,2013-02-24 16:23:00,
2013-02-24 08:28:00,38.5,35.5,30.28,East,80,0.0,3.0,89,0.00,,---,0.00,30.00,VWS V14.01,2013-02-24 16:28:00,
2013-02-24 08:33:00,38.5,35.5,30.28,ESE,118,0.0,2.0,89,0.00,,---,0.00,28.00,VWS V14.01,2013-02-24 16:33:00,
2013-02-24 08:38:00,38.6,35.6,30.28,ENE,63,0.0,2.0,89,0.00,,---,0.00,26.00,VWS V14.01,2013-02-24 16:38:00,
2013-02-24 08:43:00,38.6,35.6,30.28,SE,130,0.0,2.0,89,0.00,,---,0.00,26.00,VWS V14.01,2013-02-24 16:43:00,
2013-02-24 08:48:00,38.7,35.7,30.28,ENE,74,0.0,2.0,89,0.00,,---,0.00,26.00,VWS V14.01,2013-02-24 16:48:00,
2013-02-24 08:53:00,38.8,35.8,30.28,ESE,123,0.0,3.0,89,0.00,,---,0.00,39.00,VWS V14.01,2013-02-24 16:53:00,
2013-02-24 08:58:00,38.9,35.9,30.28,SE,132,0.0,3.0,89,0.00,,---,0.00,63.00,VWS V14.01,2013-02-24 16:58:00,
2013-02-24 09:03:00,39.0,36.0,30.28,ENE,57,1.0,1.0,89,0.00,,---,0.00,77.00,VWS V14.01,2013-02-24 17:03:00,
2013-02-24 09:08:00,39.2,36.0,30.28,ENE,74,0.0,2.0,88,0.00,,---,0.00,67.00,VWS V14.01,2013-02-24 17:08:00,
2013-02-24 09:13:00,39.4,35.9,30.27,ENE,63,0.0,4.0,87,0.00,,---,0.00,90.00,VWS V14.01,2013-02-24 17:13:00,
2013-02-24 09:18:00,39.7,36.4,30.27,ENE,73,1.0,4.0,88,0.00,,---,0.00,105.00,VWS V14.01,2013-02-24 17:18:00,
2013-02-24 09:23:00,40.0,36.7,30.27,East,79,2.0,4.0,88,0.00,,---,0.00,81.00,VWS V14.01,2013-02-24 17:23:00,
2013-02-24 09:28:00,40.4,36.0,30.27,SSE,152,1.0,8.0,84,0.00,,---,0.00,102.00,VWS V14.01,2013-02-24 17:28:00,
2013-02-24 09:33:00,40.6,36.2,30.27,NE,39,0.0,9.0,84,0.00,,---,0.00,109.00,VWS V14.01,2013-02-24 17:33:00,
2013-02-24 09:38:00,40.9,35.8,30.27,South,186,1.0,9.0,82,0.00,,---,0.00,121.00,VWS V14.01,2013-02-24 17:38:00,
2013-02-24 09:43:00,41.1,36.3,30.27,SSE,147,1.0,5.0,83,0.00,,---,0.00,141.00,VWS V14.01,2013-02-24 17:43:00,
2013-02-24 09:48:00,41.4,36.9,30.27,SSE,156,7.0,7.0,84,0.00,,---,0.00,146.00,VWS V14.01,2013-02-24 17:48:00,
2013-02-24 09:53:00,41.6,35.6,30.27,South,171,0.0,7.0,79,0.00,,---,0.00,144.00,VWS V14.01,2013-02-24 17:53:00,
2013-02-24 09:58:00,41.9,36.8,30.27,SSW,204,0.0,5.0,82,0.00,,---,0.00,146.00,VWS V14.01,2013-02-24 17:58:00,
2013-02-24 10:03:00,42.1,36.7,30.27,ENE,63,1.0,3.0,81,0.00,,---,0.00,141.00,VWS V14.01,2013-02-24 18:03:00,
2013-02-24 10:08:00,42.4,36.4,30.27,SSW,211,0.0,4.0,79,0.00,,---,0.00,151.00,VWS V14.01,2013-02-24 18:08:00,
2013-02-24 10:13:00,42.5,36.1,30.26,SE,129,2.0,6.0,78,0.00,,---,0.00,142.00,VWS V14.01,2013-02-24 18:13:00,
2013-02-24 10:18:00,42.5,36.5,30.26,SSE,159,0.0,6.0,79,0.00,,---,0.00,130.00,VWS V14.01,2013-02-24 18:18:00,
2013-02-24 10:23:00,42.7,36.0,30.26,South,171,5.0,5.0,77,0.00,,---,0.00,171.00,VWS V14.01,2013-02-24 18:23:00,
2013-02-24 10:28:00,42.7,36.7,30.26,SSE,147,1.0,6.0,79,0.00,,---,0.00,178.00,VWS V14.01,2013-02-24 18:28:00,
2013-02-24 10:33:00,43.0,36.6,30.26,SW,219,0.0,4.0,78,0.00,,---,0.00,199.00,VWS V14.01,2013-02-24 18:33:00,
2013-02-24 10:38:00,43.3,36.3,30.25,South,170,2.0,4.0,76,0.00,,---,0.00,211.00,VWS V14.01,2013-02-24 18:38:00,
2013-02-24 10:43:00,43.6,37.8,30.25,NE,56,0.0,5.0,80,0.00,,---,0.00,272.00,VWS V14.01,2013-02-24 18:43:00,
2013-02-24 10:48:00,44.0,36.6,30.26,South,171,0.0,6.0,75,0.00,,---,0.00,195.00,VWS V14.01,2013-02-24 18:48:00,
2013-02-24 10:53:00,44.3,37.9,30.25,SSW,195,0.0,6.0,78,0.00,,---,0.00,151.00,VWS V14.01,2013-02-24 18:53:00,
2013-02-24 10:58:00,44.6,37.5,30.25,SSW,192,1.0,6.0,76,0.00,,---,0.00,190.00,VWS V14.01,2013-02-24 18:58:00,
2013-02-24 11:03:00,44.8,37.7,30.25,WSW,248,3.0,6.0,76,0.00,,---,0.00,239.00,VWS V14.01,2013-02-24 19:03:00,
2013-02-24 11:08:00,44.9,37.5,30.25,NW,321,3.0,6.0,75,0.00,,---,0.00,211.00,VWS V14.01,2013-02-24 19:08:00,
2013-02-24 11:13:00,44.8,37.0,30.25,SW,236,1.0,9.0,74,0.00,,---,0.00,220.00,VWS V14.01,2013-02-24 19:13:00,
2013-02-24 11:18:00,45.0,37.9,30.25,SW,214,0.0,5.0,76,0.00,,---,0.00,234.00,VWS V14.01,2013-02-24 19:18:00,
2013-02-24 11:23:00,45.4,39.0,30.25,SSW,192,1.0,4.0,78,0.00,,---,0.00,121.00,VWS V14.01,2013-02-24 19:23:00,
2013-02-24 11:28:00,45.5,38.0,30.25,WNW,298,0.0,4.0,75,0.00,,---,0.00,76.00,VWS V14.01,2013-02-24 19:28:00,
2013-02-24 11:33:00,45.3,37.5,30.25,SE,144,4.0,4.0,74,0.00,,---,0.00,83.00,VWS V14.01,2013-02-24 19:33:00,
2013-02-24 11:38:00,45.0,37.2,30.24,South,182,1.0,6.0,74,0.00,,---,0.00,98.00,VWS V14.01,2013-02-24 19:38:00,
2013-02-24 11:43:00,44.8,37.7,30.24,SSE,157,2.0,6.0,76,0.00,,---,0.00,118.00,VWS V14.01,2013-02-24 19:43:00,
2013-02-24 11:48:00,44.7,36.9,30.24,SSW,196,0.0,6.0,74,0.00,,---,0.00,114.00,VWS V14.01,2013-02-24 19:48:00,
2013-02-24 11:53:00,44.7,36.9,30.24,East,88,1.0,6.0,74,0.00,,---,0.00,125.00,VWS V14.01,2013-02-24 19:53:00,
2013-02-24 11:58:00,44.7,37.3,30.24,South,186,4.0,8.0,75,0.00,,---,0.00,109.00,VWS V14.01,2013-02-24 19:58:00,
2013-02-24 12:03:00,44.7,36.6,30.23,East,81,4.0,8.0,73,0.00,,---,0.00,102.00,VWS V14.01,2013-02-24 20:03:00,
2013-02-24 12:08:00,44.5,36.0,30.23,SE,137,1.0,13.0,72,0.00,,---,0.00,102.00,VWS V14.01,2013-02-24 20:08:00,
2013-02-24 12:13:00,44.5,36.0,30.23,SW,220,3.0,13.0,72,0.00,,---,0.00,95.00,VWS V14.01,2013-02-24 20:13:00,
2013-02-24 12:18:00,44.4,36.7,30.22,East,84,2.0,9.0,74,0.00,,---,0.00,98.00,VWS V14.01,2013-02-24 20:18:00,
2013-02-24 12:23:00,44.4,36.7,30.22,WSW,252,0.0,6.0,74,0.00,,---,0.00,98.00,VWS V14.01,2013-02-24 20:23:00,
2013-02-24 12:28:00,44.5,36.7,30.22,East,81,3.0,10.0,74,0.00,,---,0.00,114.00,VWS V14.01,2013-02-24 20:28:00,
2013-02-24 12:33:00,44.5,37.1,30.22,NE,55,2.0,10.0,75,0.00,,---,0.00,125.00,VWS V14.01,2013-02-24 20:33:00,
2013-02-24 12:38:00,44.5,36.7,30.22,WSW,245,3.0,7.0,74,0.00,,---,0.00,113.00,VWS V14.01,2013-02-24 20:38:00,
2013-02-24 12:43:00,44.4,37.0,30.22,South,190,1.0,7.0,75,0.00,,---,0.00,107.00,VWS V14.01,2013-02-24 20:43:00,
2013-02-24 12:48:00,44.4,37.3,30.22,SSW,193,1.0,10.0,76,0.00,,---,0.00,104.00,VWS V14.01,2013-02-24 20:48:00,
2013-02-24 12:53:00,44.3,37.2,30.22,SSW,192,0.0,10.0,76,0.00,,---,0.00,114.00,VWS V14.01,2013-02-24 20:53:00,
2013-02-24 12:59:00,44.3,37.6,30.21,WSW,244,1.0,5.0,77,0.00,,---,0.00,121.00,VWS V14.01,2013-02-24 20:59:00,
2013-02-24 13:04:00,44.3,38.2,30.21,East,83,0.0,5.0,79,0.00,,---,0.00,102.00,VWS V14.01,2013-02-24 21:04:00,
2013-02-24 13:09:00,44.4,38.3,30.21,East,85,0.0,5.0,79,0.00,,---,0.00,128.00,VWS V14.01,2013-02-24 21:09:00,
2013-02-24 13:14:00,44.5,38.1,30.20,SW,225,0.0,4.0,78,0.00,,---,0.00,127.00,VWS V14.01,2013-02-24 21:14:00,
2013-02-24 13:19:00,44.6,38.2,30.20,NW,309,2.0,4.0,78,0.00,,---,0.00,118.00,VWS V14.01,2013-02-24 21:19:00,
2013-02-24 13:24:00,44.5,38.4,30.20,NNE,21,0.0,5.0,79,0.00,,---,0.00,109.00,VWS V14.01,2013-02-24 21:24:00,
2013-02-24 13:29:00,44.6,38.2,30.20,ESE,110,0.0,4.0,78,0.00,,---,0.00,90.00,VWS V14.01,2013-02-24 21:29:00,
2013-02-24 13:34:00,44.5,38.1,30.20,West,260,2.0,9.0,78,0.00,,---,0.00,100.00,VWS V14.01,2013-02-24 21:34:00,
2013-02-24 13:39:00,44.5,38.4,30.20,WSW,255,0.0,2.0,79,0.00,,---,0.00,93.00,VWS V14.01,2013-02-24 21:39:00,
2013-02-24 13:44:00,44.5,38.7,30.20,SW,217,0.0,3.0,80,0.00,,---,0.00,74.00,VWS V14.01,2013-02-24 21:44:00,
2013-02-24 13:49:00,44.3,37.9,30.20,South,169,2.0,5.0,78,0.00,,---,0.00,60.00,VWS V14.01,2013-02-24 21:49:00,
2013-02-24 13:54:00,44.2,38.4,30.20,SSW,213,0.0,4.0,80,0.00,,---,0.00,81.00,VWS V14.01,2013-02-24 21:54:00,
2013-02-24 13:59:00,44.1,38.0,30.19,SE,132,1.0,5.0,79,0.00,,---,0.00,98.00,VWS V14.01,2013-02-24 21:59:00,
2013-02-24 14:04:00,44.0,37.9,30.19,WSW,248,2.0,5.0,79,0.00,,---,0.00,105.00,VWS V14.01,2013-02-24 22:04:00,
2013-02-24 14:09:00,44.1,38.3,30.19,South,169,1.0,4.0,80,0.00,,---,0.00,120.00,VWS V14.01,2013-02-24 22:09:00,
2013-02-24 14:14:00,44.2,38.4,30.18,SSW,192,0.0,5.0,80,0.00,,---,0.00,139.00,VWS V14.01,2013-02-24 22:14:00,
2013-02-24 14:19:00,44.4,38.3,30.18,SSE,165,1.0,5.0,79,0.00,,---,0.00,141.00,VWS V14.01,2013-02-24 22:19:00,
2013-02-24 14:24:00,44.6,38.8,30.18,NE,44,0.0,5.0,80,0.00,,---,0.00,146.00,VWS V14.01,2013-02-24 22:24:00,
2013-02-24 14:29:00,44.7,38.3,30.18,SW,225,4.0,7.0,78,0.00,,---,0.00,118.00,VWS V14.01,2013-02-24 22:29:00,
2013-02-24 14:34:00,44.5,37.8,30.18,SW,236,1.0,7.0,77,0.00,,---,0.00,86.00,VWS V14.01,2013-02-24 22:34:00,
2013-02-24 14:39:00,44.5,38.1,30.17,ENE,61,0.0,7.0,78,0.00,,---,0.00,62.00,VWS V14.01,2013-02-24 22:39:00,
2013-02-24 14:44:00,44.5,38.4,30.17,WSW,248,0.0,4.0,79,0.00,,---,0.00,77.00,VWS V14.01,2013-02-24 22:44:00,
2013-02-24 14:49:00,44.3,38.2,30.17,East,96,0.0,4.0,79,0.00,,---,0.00,65.00,VWS V14.01,2013-02-24 22:49:00,
2013-02-24 14:54:00,44.2,38.4,30.17,SW,225,0.0,2.0,80,0.00,,---,0.00,77.00,VWS V14.01,2013-02-24 22:54:00,
2013-02-24 14:59:00,44.2,38.1,30.17,East,91,1.0,7.0,79,0.00,,---,0.00,74.00,VWS V14.01,2013-02-24 22:59:00,
2013-02-24 15:04:00,43.9,37.8,30.16,SE,145,0.0,7.0,79,0.00,,---,0.00,83.00,VWS V14.01,2013-02-24 23:04:00,
2013-02-24 15:09:00,43.7,38.0,30.16,SSW,202,0.0,5.0,80,0.00,,---,0.00,98.00,VWS V14.01,2013-02-24 23:09:00,
2013-02-24 15:14:00,43.7,38.0,30.16,South,184,0.0,5.0,80,0.00,,---,0.00,83.00,VWS V14.01,2013-02-24 23:14:00,
2013-02-24 15:19:00,43.7,38.3,30.16,SW,214,0.0,5.0,81,0.00,,---,0.00,83.00,VWS V14.01,2013-02-24 23:19:00,
2013-02-24 15:24:00,43.8,38.7,30.16,South,176,0.0,1.0,82,0.00,,---,0.00,79.00,VWS V14.01,2013-02-24 23:24:00,
2013-02-24 15:29:00,43.8,38.0,30.15,WNW,283,0.0,3.0,80,0.00,,---,0.00,74.00,VWS V14.01,2013-02-24 23:29:00,
2013-02-24 15:34:00,43.9,38.5,30.15,WSW,238,0.0,3.0,81,0.00,,---,0.00,70.00,VWS V14.01,2013-02-24 23:34:00,
2013-02-24 15:39:00,43.9,38.5,30.15,SSW,212,0.0,2.0,81,0.00,,---,0.00,84.00,VWS V14.01,2013-02-24 23:39:00,
2013-02-24 15:44:00,44.0,38.5,30.14,South,176,0.0,4.0,81,0.00,,---,0.00,91.00,VWS V14.01,2013-02-24 23:44:00,
2013-02-24 15:49:00,44.0,38.9,30.14,ESE,116,0.0,4.0,82,0.00,,---,0.00,88.00,VWS V14.01,2013-02-24 23:49:00,
2013-02-24 15:54:00,44.0,38.2,30.14,SE,140,4.0,4.0,80,0.00,,---,0.00,70.00,VWS V14.01,2013-02-24 23:54:00,
2013-02-24 15:59:00,43.9,38.1,30.14,SSW,193,2.0,4.0,80,0.00,,---,0.00,63.00,VWS V14.01,2013-02-24 23:59:00,
2013-02-24 16:04:00,43.8,38.0,30.14,SSE,154,0.0,4.0,80,0.00,,---,0.00,54.00,VWS V14.01,2013-02-25 00:04:00,
2013-02-24 16:09:00,43.8,38.0,30.13,ESE,117,2.0,4.0,80,0.00,,---,0.00,51.00,VWS V14.01,2013-02-25 00:09:00,
2013-02-24 16:14:00,43.9,38.1,30.13,North,360,0.0,2.0,80,0.00,,---,0.00,53.00,VWS V14.01,2013-02-25 00:14:00,
2013-02-24 16:19:00,43.9,38.1,30.13,South,171,2.0,5.0,80,0.00,,---,0.00,54.00,VWS V14.01,2013-02-25 00:19:00,
2013-02-24 16:24:00,43.8,37.7,30.12,SE,140,0.0,5.0,79,0.00,,---,0.00,44.00,VWS V14.01,2013-02-25 00:24:00,
2013-02-24 16:29:00,43.8,38.0,30.12,ESE,118,2.0,2.0,80,0.00,,---,0.00,28.00,VWS V14.01,2013-02-25 00:29:00,
2013-02-24 16:34:00,43.8,38.0,30.12,ESE,118,0.0,2.0,80,0.00,,---,0.00,23.00,VWS V14.01,2013-02-25 00:34:00,
2013-02-24 16:39:00,43.8,38.0,30.12,ESE,118,0.0,2.0,80,0.00,,---,0.00,19.00,VWS V14.01,2013-02-25 00:39:00,
2013-02-24 16:44:00,43.8,38.0,30.12,ESE,118,0.0,2.0,80,0.00,,---,0.00,19.00,VWS V14.01,2013-02-25 00:44:00,
2013-02-24 16:49:00,43.7,37.6,30.11,ESE,118,0.0,5.0,79,0.00,,---,0.00,18.00,VWS V14.01,2013-02-25 00:49:00,
2013-02-24 16:54:00,43.6,37.8,30.11,ESE,118,1.0,2.0,80,0.00,,---,0.00,18.00,VWS V14.01,2013-02-25 00:54:00,
2013-02-24 16:59:00,43.6,37.8,30.11,ESE,120,0.0,6.0,80,0.00,,---,0.00,14.00,VWS V14.01,2013-02-25 00:59:00,
2013-02-24 17:04:00,43.6,37.8,30.10,WNW,296,0.0,6.0,80,0.00,,---,0.00,12.00,VWS V14.01,2013-02-25 01:04:00,
2013-02-24 17:09:00,43.5,37.8,30.10,SSE,159,0.0,2.0,80,0.00,,---,0.00,12.00,VWS V14.01,2013-02-25 01:09:00,
2013-02-24 17:14:00,43.4,37.7,30.10,SSE,160,0.0,0.0,80,0.00,,---,0.00,11.00,VWS V14.01,2013-02-25 01:14:00,
2013-02-24 17:19:00,43.3,37.6,30.10,SSE,157,0.0,2.0,80,0.00,,---,0.00,9.00,VWS V14.01,2013-02-25 01:19:00,
2013-02-24 17:24:00,43.2,37.5,30.09,ESE,111,0.0,2.0,80,0.00,,---,0.00,7.00,VWS V14.01,2013-02-25 01:24:00,
2013-02-24 17:29:00,43.2,37.1,30.09,SE,146,0.0,2.0,79,0.00,,---,0.00,5.00,VWS V14.01,2013-02-25 01:29:00,
2013-02-24 17:34:00,43.3,37.2,30.09,SSE,158,0.0,2.0,79,0.00,,---,0.00,0.00,VWS V14.01,2013-02-25 01:34:00,
2013-02-24 17:39:00,43.3,37.6,30.09,SSE,158,0.0,2.0,80,0.00,,---,0.00,0.00,VWS V14.01,2013-02-25 01:39:00,
2013-02-24 17:44:00,43.2,37.5,30.08,SSE,158,0.0,0.0,80,0.00,,---,0.00,0.00,VWS V14.01,2013-02-25 01:44:00,
2013-02-24 17:49:00,43.1,37.7,30.08,East,100,2.0,2.0,81,0.00,,---,0.00,0.00,VWS V14.01,2013-02-25 01:49:00,
2013-02-24 17:54:00,43.0,37.6,30.08,East,96,0.0,2.0,81,0.00,,---,0.00,0.00,VWS V14.01,2013-02-25 01:54:00,
2013-02-24 17:59:00,42.9,37.8,30.08,East,96,0.0,0.0,82,0.00,,---,0.00,0.00,VWS V14.01,2013-02-25 01:59:00,
2013-02-24 18:04:00,42.8,37.7,30.07,East,96,0.0,0.0,82,0.00,,---,0.00,0.00,VWS V14.01,2013-02-25 02:04:00,
2013-02-24 18:09:00,42.7,37.6,30.07,ESE,121,0.0,1.0,82,0.00,,---,0.00,0.00,VWS V14.01,2013-02-25 02:09:00,
2013-02-24 18:14:00,42.5,37.4,30.07,ESE,121,0.0,0.0,82,0.00,,---,0.00,0.00,VWS V14.01,2013-02-25 02:14:00,
2013-02-24 18:19:00,42.5,37.7,30.07,ESE,121,0.0,0.0,83,0.00,,---,0.00,0.00,VWS V14.01,2013-02-25 02:19:00,
2013-02-24 18:24:00,42.4,37.6,30.07,ESE,121,0.0,0.0,83,0.00,,---,0.00,0.00,VWS V14.01,2013-02-25 02:24:00,
2013-02-24 18:29:00,42.4,37.3,30.06,ESE,115,0.0,2.0,82,0.00,,---,0.00,0.00,VWS V14.01,2013-02-25 02:29:00,
2013-02-24 18:34:00,42.4,37.6,30.06,ESE,115,0.0,2.0,83,0.00,,---,0.00,0.00,VWS V14.01,2013-02-25 02:34:00,
2013-02-24 18:39:00,42.5,37.1,30.06,East,94,0.0,7.0,81,0.00,,---,0.00,0.00,VWS V14.01,2013-02-25 02:39:00,
2013-02-24 18:44:00,42.7,37.0,30.06,ESE,103,0.0,7.0,80,0.00,,---,0.00,0.00,VWS V14.01,2013-02-25 02:44:00,
2013-02-24 18:49:00,42.8,37.4,30.05,NE,46,2.0,4.0,81,0.00,,---,0.00,0.00,VWS V14.01,2013-02-25 02:49:00,
2013-02-24 18:54:00,42.9,37.5,30.05,SSE,159,0.0,5.0,81,0.00,,---,0.00,0.00,VWS V14.01,2013-02-25 02:54:00,
2013-02-24 18:59:00,42.9,37.2,30.05,ESE,110,0.0,5.0,80,0.00,,---,0.00,0.00,VWS V14.01,2013-02-25 02:59:00,
2013-02-24 19:04:00,42.8,37.1,30.05,East,82,0.0,1.0,80,0.00,,---,0.00,0.00,VWS V14.01,2013-02-25 03:04:00,
2013-02-24 19:09:00,42.8,37.1,30.05,East,82,0.0,2.0,80,0.00,,---,0.00,0.00,VWS V14.01,2013-02-25 03:09:00,
2013-02-24 19:14:00,42.7,37.0,30.05,East,82,0.0,1.0,80,0.00,,---,0.00,0.00,VWS V14.01,2013-02-25 03:14:00,
2013-02-24 19:19:00,42.7,37.0,30.04,WNW,299,0.0,1.0,80,0.00,,---,0.00,0.00,VWS V14.01,2013-02-25 03:19:00,
2013-02-24 19:24:00,42.6,36.9,30.04,NE,49,0.0,2.0,80,0.00,,---,0.00,0.00,VWS V14.01,2013-02-25 03:24:00,
2013-02-24 19:29:00,42.6,37.2,30.04,West,273,0.0,2.0,81,0.00,,---,0.00,0.00,VWS V14.01,2013-02-25 03:29:00,
2013-02-24 19:34:00,42.5,36.8,30.03,ENE,65,3.0,6.0,80,0.00,,---,0.00,0.00,VWS V14.01,2013-02-25 03:34:00,
2013-02-24 19:40:00,42.6,35.9,30.03,South,183,0.0,6.0,77,0.00,,---,0.00,0.00,VWS V14.01,2013-02-25 03:40:00,
2013-02-24 19:45:00,42.7,36.3,30.03,South,184,0.0,3.0,78,0.00,,---,0.00,0.00,VWS V14.01,2013-02-25 03:45:00,
2013-02-24 19:50:00,42.7,36.7,30.03,South,184,0.0,0.0,79,0.00,,---,0.00,0.00,VWS V14.01,2013-02-25 03:50:00,
2013-02-24 19:55:00,42.6,36.5,30.02,ESE,112,0.0,1.0,79,0.00,,---,0.00,0.00,VWS V14.01,2013-02-25 03:55:00,
2013-02-24 20:00:00,42.6,36.5,30.02,ESE,103,0.0,2.0,79,0.00,,---,0.00,0.00,VWS V14.01,2013-02-25 04:00:00,
2013-02-24 20:05:00,42.5,36.5,30.01,SSW,212,1.0,4.0,79,0.00,,---,0.00,0.00,VWS V14.01,2013-02-25 04:05:00,
2013-02-24 20:10:00,42.5,36.5,30.01,West,276,0.0,4.0,79,0.00,,---,0.00,0.00,VWS V14.01,2013-02-25 04:10:00,
2013-02-24 20:15:00,42.6,36.5,30.00,West,275,0.0,1.0,79,0.00,,---,0.00,0.00,VWS V14.01,2013-02-25 04:15:00,
2013-02-24 20:20:00,42.6,36.5,30.00,ENE,67,0.0,2.0,79,0.00,,---,0.00,0.00,VWS V14.01,2013-02-25 04:20:00,
2013-02-24 20:25:00,42.5,36.5,30.00,ENE,67,0.0,2.0,79,0.00,,---,0.00,0.00,VWS V14.01,2013-02-25 04:25:00,
2013-02-24 20:30:00,42.4,36.7,29.99,ENE,67,0.0,1.0,80,0.00,,---,0.00,0.00,VWS V14.01,2013-02-25 04:30:00,
2013-02-24 20:35:00,42.4,36.7,30.00,ENE,67,0.0,2.0,80,0.00,,---,0.00,0.00,VWS V14.01,2013-02-25 04:35:00,
2013-02-24 20:40:00,42.3,36.6,29.99,ENE,67,0.0,2.0,80,0.00,,---,0.00,0.00,VWS V14.01,2013-02-25 04:40:00,
2013-02-24 20:45:00,42.2,36.5,29.99,ENE,67,0.0,2.0,80,0.00,,---,0.00,0.00,VWS V14.01,2013-02-25 04:45:00,
2013-02-24 20:50:00,42.2,36.5,29.98,ENE,67,0.0,1.0,80,0.00,,---,0.00,0.00,VWS V14.01,2013-02-25 04:50:00,
2013-02-24 20:55:00,42.1,36.4,29.98,ENE,57,0.0,2.0,80,0.00,,---,0.00,0.00,VWS V14.01,2013-02-25 04:55:00,
2013-02-24 21:00:00,42.1,36.7,29.98,ENE,57,0.0,2.0,81,0.00,,---,0.00,0.00,VWS V14.01,2013-02-25 05:00:00,
2013-02-24 21:05:00,42.1,36.7,29.98,ENE,57,0.0,0.0,81,0.00,,---,0.00,0.00,VWS V14.01,2013-02-25 05:05:00,
2013-02-24 21:10:00,42.1,37.0,29.98,ENE,57,0.0,2.0,82,0.00,,---,0.00,0.00,VWS V14.01,2013-02-25 05:10:00,
2013-02-24 21:15:00,42.0,36.9,29.98,ENE,57,0.0,2.0,82,0.00,,---,0.00,0.00,VWS V14.01,2013-02-25 05:15:00,
2013-02-24 21:20:00,42.0,36.9,29.98,SSW,205,0.0,2.0,82,0.00,,---,0.00,0.00,VWS V14.01,2013-02-25 05:20:00,
2013-02-24 21:25:00,42.1,36.4,29.97,ENE,61,2.0,7.0,80,0.00,,---,0.00,0.00,VWS V14.01,2013-02-25 05:25:00,
2013-02-24 21:30:00,42.5,36.1,29.97,ESE,116,1.0,6.0,78,0.00,,---,0.00,0.00,VWS V14.01,2013-02-25 05:30:00,
2013-02-24 21:35:00,42.8,35.4,29.97,West,260,1.0,7.0,75,0.00,,---,0.00,0.00,VWS V14.01,2013-02-25 05:35:00,
2013-02-24 21:40:00,43.2,36.2,29.97,South,184,2.0,4.0,76,0.00,,---,0.00,0.00,VWS V14.01,2013-02-25 05:40:00,
2013-02-24 21:45:00,43.3,35.9,29.97,ESE,115,2.0,4.0,75,0.00,,---,0.00,0.00,VWS V14.01,2013-02-25 05:45:00,
2013-02-24 21:50:00,43.4,36.3,29.96,SW,217,0.0,5.0,76,0.00,,---,0.00,0.00,VWS V14.01,2013-02-25 05:50:00,
2013-02-24 21:55:00,43.4,36.0,29.96,SSE,159,0.0,2.0,75,0.00,,---,0.00,0.00,VWS V14.01,2013-02-25 05:55:00,
2013-02-24 22:00:00,43.3,36.3,29.96,SSE,151,1.0,2.0,76,0.00,,---,0.00,0.00,VWS V14.01,2013-02-25 06:00:00,
2013-02-24 22:05:00,43.2,36.5,29.95,SE,132,0.0,2.0,77,0.00,,---,0.00,0.00,VWS V14.01,2013-02-25 06:05:00,
2013-02-24 22:10:00,43.0,36.6,29.95,SE,132,0.0,2.0,78,0.00,,---,0.00,0.00,VWS V14.01,2013-02-25 06:10:00,
2013-02-24 22:15:00,42.8,37.1,29.94,SE,126,0.0,1.0,80,0.00,,---,0.00,0.00,VWS V14.01,2013-02-25 06:15:00,
2013-02-24 22:21:00,42.5,37.1,29.94,SE,126,0.0,1.0,81,0.00,,---,0.00,0.00,VWS V14.01,2013-02-25 06:21:00,
2013-02-24 22:26:00,42.2,37.1,29.94,ESE,110,0.0,2.0,82,0.00,,---,0.00,0.00,VWS V14.01,2013-02-25 06:26:00,
2013-02-24 22:31:00,41.9,37.1,29.94,ESE,110,0.0,2.0,83,0.00,,---,0.00,0.00,VWS V14.01,2013-02-25 06:31:00,
2013-02-24 22:36:00,41.8,37.3,29.94,ESE,110,0.0,1.0,84,0.00,,---,0.00,0.00,VWS V14.01,2013-02-25 06:36:00,
2013-02-24 22:41:00,41.6,37.1,29.94,ENE,76,0.0,1.0,84,0.00,,---,0.00,0.00,VWS V14.01,2013-02-25 06:41:00,
2013-02-24 22:46:00,41.5,36.1,29.94,East,90,1.0,8.0,81,0.00,,---,0.00,0.00,VWS V14.01,2013-02-25 06:46:00,
2013-02-24 22:51:00,41.7,36.3,29.94,ESE,110,0.0,8.0,81,0.00,,---,0.00,0.00,VWS V14.01,2013-02-25 06:51:00,
2013-02-24 22:56:00,41.9,36.5,29.93,WSW,251,1.0,4.0,81,0.00,,---,0.00,0.00,VWS V14.01,2013-02-25 06:56:00,
2013-02-24 23:01:00,42.3,35.9,29.93,SE,144,2.0,6.0,78,0.00,,---,0.00,0.00,VWS V14.01,2013-02-25 07:01:00,
2013-02-24 23:06:00,42.7,35.3,29.93,SSE,167,2.0,10.0,75,0.00,,---,0.00,0.00,VWS V14.01,2013-02-25 07:06:00,
2013-02-24 23:11:00,43.1,35.4,29.92,West,279,6.0,9.0,74,0.00,,---,0.00,0.00,VWS V14.01,2013-02-25 07:11:00,
2013-02-24 23:16:00,43.3,35.2,29.92,East,97,4.0,9.0,73,0.00,,---,0.00,0.00,VWS V14.01,2013-02-25 07:16:00,
2013-02-24 23:21:00,43.3,36.3,29.91,NE,45,1.0,6.0,76,0.00,,---,0.00,0.00,VWS V14.01,2013-02-25 07:21:00,
2013-02-24 23:26:00,43.3,35.6,29.91,SSE,148,4.0,7.0,74,0.00,,---,0.00,0.00,VWS V14.01,2013-02-25 07:26:00,
2013-02-24 23:31:00,43.3,35.9,29.90,ESE,115,2.0,7.0,75,0.00,,---,0.00,0.00,VWS V14.01,2013-02-25 07:31:00,
2013-02-24 23:36:00,43.3,36.3,29.90,East,85,0.0,4.0,76,0.00,,---,0.00,0.00,VWS V14.01,2013-02-25 07:36:00,
2013-02-24 23:41:00,43.2,36.5,29.90,South,182,1.0,4.0,77,0.00,,---,0.00,0.00,VWS V14.01,2013-02-25 07:41:00,
2013-02-24 23:46:00,43.2,36.2,29.90,NE,37,0.0,6.0,76,0.00,,---,0.00,0.00,VWS V14.01,2013-02-25 07:46:00,
2013-02-24 23:51:00,43.1,36.1,29.90,SW,223,3.0,8.0,76,0.00,,---,0.00,0.00,VWS V14.01,2013-02-25 07:51:00,
2013-02-24 23:56:00,43.3,35.9,29.91,WSW,249,8.0,18.0,75,0.00,,---,0.00,0.00,VWS V14.01,2013-02-25 07:56:00,